CES5402 ZSPD-VDPP

Flight info

Callsign CES5402
Flight time 3h 41m
Altitude 34100
Route NXD DCT OKTUG DCT SUPAR DCT MULOV DCT UGAGO DCT ELNEX DCT ABVIL DCT OREXA DCT MOMGO DCT ISNIR DCT MABAG/K0846S1160 DCT CEN DCT ZUH75 DCT DOMGO DCT WCF DCT AL/K0845F380 DCT LAIKA DCT PAPRA/N0457F380 DCT SEKON DCT NILIS DCT VIBUN
Aircraft A320/M-SDE2E3FGILRWXY/LB2

Departure

Time 2026-05-07 10:36
Airport Shanghai Pudong International Airport (ZSPD)

Arrival

Time 2026-05-07 14:17
Airport Phnom Penh International Airport (VDPP)
Time Latitude Longitude Altitude Speed Heading
2026-05-07 10:14 31.14632 121.80019 23 ft 0 kts 252°
2026-05-07 10:25 31.14633 121.80023 -5 ft 3 kts 252°
2026-05-07 10:25 31.14640 121.80047 23 ft 4 kts 240°
2026-05-07 10:25 31.14657 121.80068 26 ft 4 kts 195°
2026-05-07 10:26 31.14681 121.80069 25 ft 3 kts 162°
2026-05-07 10:26 31.14688 121.80066 24 ft 0 kts 162°
2026-05-07 10:28 31.14686 121.80067 25 ft 2 kts 162°
2026-05-07 10:28 31.14658 121.80077 25 ft 6 kts 162°
2026-05-07 10:29 31.14609 121.80096 23 ft 8 kts 162°
2026-05-07 10:29 31.14548 121.80119 24 ft 10 kts 162°
2026-05-07 10:29 31.14484 121.80101 23 ft 11 kts 241°
2026-05-07 10:30 31.14427 121.79900 23 ft 15 kts 252°
2026-05-07 10:30 31.14392 121.79820 23 ft 11 kts 205°
2026-05-07 10:30 31.14315 121.79838 24 ft 12 kts 162°
2026-05-07 10:30 31.14227 121.79871 23 ft 14 kts 162°
2026-05-07 10:31 31.14141 121.79903 24 ft 12 kts 162°
2026-05-07 10:31 31.14080 121.79857 23 ft 13 kts 251°
2026-05-07 10:31 31.14051 121.79751 23 ft 13 kts 251°
2026-05-07 10:31 31.13971 121.79740 23 ft 14 kts 162°
2026-05-07 10:32 31.13872 121.79777 23 ft 16 kts 162°
2026-05-07 10:32 31.13760 121.79820 23 ft 18 kts 162°
2026-05-07 10:32 31.13635 121.79867 23 ft 20 kts 163°
2026-05-07 10:32 31.13496 121.79919 23 ft 22 kts 161°
2026-05-07 10:33 31.13343 121.79977 23 ft 24 kts 162°
2026-05-07 10:33 31.13185 121.80037 22 ft 23 kts 162°
2026-05-07 10:33 31.13032 121.80094 23 ft 22 kts 162°
2026-05-07 10:33 31.12899 121.80145 23 ft 16 kts 162°
2026-05-07 10:34 31.12812 121.80175 23 ft 12 kts 176°
2026-05-07 10:34 31.12768 121.80099 23 ft 13 kts 251°
2026-05-07 10:34 31.12739 121.79994 23 ft 15 kts 252°
2026-05-07 10:34 31.12720 121.79904 23 ft 7 kts 279°
2026-05-07 10:35 31.12763 121.79868 22 ft 9 kts 342°
2026-05-07 10:35 31.12877 121.79825 22 ft 32 kts 342°
2026-05-07 10:35 31.13368 121.79642 24 ft 113 kts 342°
2026-05-07 10:35 31.14323 121.79281 38 ft 171 kts 342°
2026-05-07 10:36 31.15462 121.78842 817 ft 172 kts 343°
2026-05-07 10:36 31.16617 121.78405 1640 ft 177 kts 342°
2026-05-07 10:36 31.17785 121.77940 2517 ft 177 kts 341°
2026-05-07 10:36 31.18948 121.77463 3389 ft 176 kts 340°
2026-05-07 10:37 31.20111 121.76981 3802 ft 188 kts 339°
2026-05-07 10:37 31.21419 121.76439 4056 ft 211 kts 339°
2026-05-07 10:37 31.22880 121.75838 4304 ft 235 kts 339°
2026-05-07 10:37 31.24504 121.75174 4731 ft 257 kts 339°
2026-05-07 10:38 31.26215 121.74482 5497 ft 263 kts 338°
2026-05-07 10:38 31.27957 121.73778 6370 ft 266 kts 338°
2026-05-07 10:38 31.29715 121.73063 7209 ft 269 kts 338°
2026-05-07 10:38 31.31485 121.72333 8055 ft 270 kts 335°
2026-05-07 10:39 31.33036 121.71127 8864 ft 269 kts 310°
2026-05-07 10:39 31.33973 121.69262 9671 ft 268 kts 285°
2026-05-07 10:39 31.34128 121.67098 10404 ft 271 kts 262°
2026-05-07 10:39 31.33784 121.64841 10689 ft 294 kts 259°
2026-05-07 10:40 31.33376 121.62408 10871 ft 317 kts 259°
2026-05-07 10:40 31.32929 121.59792 11063 ft 337 kts 259°
2026-05-07 10:40 31.32469 121.57068 11575 ft 345 kts 259°
2026-05-07 10:40 31.32007 121.54300 12224 ft 348 kts 259°
2026-05-07 10:41 31.31545 121.51518 12873 ft 351 kts 259°
2026-05-07 10:41 31.31080 121.48708 13542 ft 353 kts 259°
2026-05-07 10:41 31.30612 121.45885 14142 ft 355 kts 260°
2026-05-07 10:41 31.30140 121.43031 14695 ft 358 kts 259°
2026-05-07 10:42 31.29665 121.40166 15241 ft 360 kts 259°
2026-05-07 10:42 31.29172 121.37281 15773 ft 363 kts 257°
2026-05-07 10:42 31.28322 121.34532 16287 ft 367 kts 244°
2026-05-07 10:42 31.26840 121.32082 16808 ft 374 kts 227°
2026-05-07 10:43 31.24947 121.30394 17276 ft 382 kts 211°
2026-05-07 10:43 31.22445 121.29270 17790 ft 389 kts 201°
2026-05-07 10:43 31.19854 121.28312 18308 ft 391 kts 201°
2026-05-07 10:43 31.17242 121.27368 18763 ft 394 kts 201°
2026-05-07 10:44 31.14620 121.26424 19219 ft 397 kts 201°
2026-05-07 10:44 31.11969 121.25466 19680 ft 399 kts 201°
2026-05-07 10:44 31.09311 121.24500 20132 ft 402 kts 201°
2026-05-07 10:44 31.06634 121.23523 20583 ft 404 kts 201°
2026-05-07 10:45 31.03939 121.22539 21024 ft 407 kts 201°
2026-05-07 10:45 31.01234 121.21551 21452 ft 409 kts 201°
2026-05-07 10:45 30.98505 121.20553 21867 ft 412 kts 201°
2026-05-07 10:45 30.95766 121.19553 22279 ft 414 kts 201°
2026-05-07 10:46 30.93004 121.18546 22683 ft 417 kts 201°
2026-05-07 10:46 30.90225 121.17536 23087 ft 419 kts 201°
2026-05-07 10:46 30.87436 121.16522 23479 ft 422 kts 201°
2026-05-07 10:46 30.84627 121.15500 23820 ft 424 kts 201°
2026-05-07 10:47 30.81803 121.14473 24145 ft 426 kts 201°
2026-05-07 10:47 30.78967 121.13444 24479 ft 428 kts 201°
2026-05-07 10:47 30.76115 121.12408 24812 ft 430 kts 201°
2026-05-07 10:47 30.73252 121.11367 25137 ft 432 kts 202°
2026-05-07 10:48 30.70379 121.10323 25460 ft 434 kts 202°
2026-05-07 10:48 30.67486 121.09272 25790 ft 436 kts 202°
2026-05-07 10:48 30.64588 121.08221 26124 ft 438 kts 202°
2026-05-07 10:48 30.61667 121.07163 26460 ft 440 kts 202°
2026-05-07 10:49 30.58738 121.06102 26802 ft 442 kts 202°
2026-05-07 10:49 30.55791 121.05035 27143 ft 445 kts 202°
2026-05-07 10:49 30.52833 121.03967 27482 ft 447 kts 202°
2026-05-07 10:49 30.49855 121.02893 27815 ft 449 kts 202°
2026-05-07 10:50 30.46868 121.01816 28148 ft 451 kts 202°
2026-05-07 10:50 30.43875 121.00738 28571 ft 451 kts 202°
2026-05-07 10:50 30.40881 120.99664 29089 ft 449 kts 202°
2026-05-07 10:50 30.37901 120.98595 29582 ft 448 kts 203°
2026-05-07 10:51 30.34930 120.97529 30073 ft 446 kts 203°
2026-05-07 10:51 30.31971 120.96462 30483 ft 446 kts 203°
2026-05-07 10:51 30.29011 120.95393 30874 ft 445 kts 203°
2026-05-07 10:51 30.26057 120.94329 31259 ft 445 kts 203°
2026-05-07 10:52 30.23097 120.93268 31648 ft 445 kts 203°
2026-05-07 10:52 30.20143 120.92211 32030 ft 445 kts 203°
2026-05-07 10:52 30.17181 120.91153 32430 ft 445 kts 203°
2026-05-07 10:52 30.14226 120.90094 32811 ft 445 kts 203°
2026-05-07 10:53 30.11274 120.89033 33198 ft 445 kts 203°
2026-05-07 10:53 30.08316 120.87971 33594 ft 445 kts 203°
2026-05-07 10:53 30.05465 120.86760 33968 ft 439 kts 211°
2026-05-07 10:53 30.02808 120.85008 34293 ft 431 kts 221°
2026-05-07 10:54 30.00516 120.82820 34611 ft 424 kts 230°
2026-05-07 10:54 29.98601 120.80265 34935 ft 419 kts 237°
2026-05-07 10:54 29.96866 120.77629 35259 ft 419 kts 237°
2026-05-07 10:54 29.95097 120.74963 35570 ft 418 kts 237°
2026-05-07 10:55 29.93324 120.72306 35888 ft 418 kts 237°
2026-05-07 10:55 29.91546 120.69648 36030 ft 419 kts 237°
2026-05-07 10:55 29.87942 120.64272 36054 ft 426 kts 237°
2026-05-07 10:56 29.84315 120.58861 36055 ft 427 kts 237°
2026-05-07 10:56 29.80689 120.53444 36059 ft 427 kts 237°
2026-05-07 10:57 29.77055 120.48021 36065 ft 428 kts 237°
2026-05-07 10:57 29.73414 120.42601 36072 ft 428 kts 236°
2026-05-07 10:58 29.69774 120.37186 36068 ft 428 kts 236°
2026-05-07 10:58 29.66125 120.31773 36065 ft 429 kts 236°
2026-05-07 10:59 29.62934 120.26070 36076 ft 421 kts 251°
2026-05-07 10:59 29.61611 120.19609 36073 ft 414 kts 269°
2026-05-07 11:00 29.61717 120.12996 36070 ft 414 kts 272°
2026-05-07 11:00 29.61865 120.06379 36076 ft 415 kts 272°
2026-05-07 11:01 29.62010 119.99750 36076 ft 415 kts 272°
2026-05-07 11:01 29.62157 119.93112 36082 ft 416 kts 272°
2026-05-07 11:02 29.62303 119.86471 36075 ft 416 kts 272°
2026-05-07 11:02 29.62455 119.79820 36084 ft 416 kts 272°
2026-05-07 11:03 29.62593 119.73166 36084 ft 417 kts 272°
2026-05-07 11:03 29.62718 119.66553 36090 ft 417 kts 272°
2026-05-07 11:04 29.62869 119.59892 36096 ft 417 kts 273°
2026-05-07 11:04 29.63053 119.53230 36086 ft 417 kts 273°
2026-05-07 11:05 29.63259 119.46583 36091 ft 416 kts 274°
2026-05-07 11:05 29.63631 119.39957 36090 ft 416 kts 275°
2026-05-07 11:06 29.64057 119.33333 36094 ft 415 kts 275°
2026-05-07 11:06 29.64529 119.26721 36092 ft 414 kts 277°
2026-05-07 11:07 29.65023 119.20121 36099 ft 416 kts 270°
2026-05-07 11:07 29.64688 119.16816 36109 ft 418 kts 259°
2026-05-07 11:07 29.63778 119.13633 36106 ft 422 kts 249°
2026-05-07 11:08 29.60582 119.07914 36103 ft 428 kts 238°
2026-05-07 11:08 29.57095 119.02366 36104 ft 428 kts 238°
2026-05-07 11:09 29.53615 118.96814 36105 ft 428 kts 238°
2026-05-07 11:09 29.50020 118.91346 36106 ft 433 kts 231°
2026-05-07 11:10 29.45388 118.86835 36108 ft 438 kts 223°
2026-05-07 11:10 29.40584 118.82519 36109 ft 439 kts 223°
2026-05-07 11:11 29.35781 118.78209 36109 ft 439 kts 223°
2026-05-07 11:11 29.30972 118.73899 36105 ft 439 kts 223°
2026-05-07 11:12 29.26172 118.69589 36107 ft 438 kts 224°
2026-05-07 11:12 29.21376 118.65281 36113 ft 439 kts 223°
2026-05-07 11:13 29.16568 118.60978 36109 ft 438 kts 223°
2026-05-07 11:13 29.11774 118.56685 36102 ft 438 kts 223°
2026-05-07 11:14 29.07789 118.53122 36097 ft 437 kts 224°
2026-05-07 11:14 29.02996 118.48844 36093 ft 437 kts 223°
2026-05-07 11:15 28.98195 118.44566 36097 ft 437 kts 223°
2026-05-07 11:15 28.92620 118.39608 36095 ft 437 kts 223°
2026-05-07 11:16 28.88597 118.36034 36091 ft 437 kts 223°
2026-05-07 11:16 28.83803 118.31773 36089 ft 437 kts 223°
2026-05-07 11:17 28.79033 118.27543 36087 ft 437 kts 223°
2026-05-07 11:17 28.74233 118.23297 36086 ft 437 kts 223°
2026-05-07 11:18 28.69428 118.19053 36087 ft 437 kts 223°
2026-05-07 11:18 28.64622 118.14807 36082 ft 437 kts 223°
2026-05-07 11:19 28.59820 118.10565 36081 ft 437 kts 223°
2026-05-07 11:19 28.55023 118.06330 36083 ft 437 kts 223°
2026-05-07 11:20 28.50223 118.02098 36082 ft 437 kts 223°
2026-05-07 11:20 28.45419 117.97875 36082 ft 436 kts 223°
2026-05-07 11:21 28.40617 117.93658 36082 ft 436 kts 223°
2026-05-07 11:21 28.35817 117.89451 36085 ft 436 kts 223°
2026-05-07 11:22 28.31018 117.85241 36084 ft 436 kts 223°
2026-05-07 11:22 28.26230 117.81044 36087 ft 435 kts 223°
2026-05-07 11:23 28.21430 117.76849 36086 ft 435 kts 222°
2026-05-07 11:23 28.16640 117.72667 36084 ft 435 kts 222°
2026-05-07 11:24 28.11848 117.68487 36089 ft 434 kts 223°
2026-05-07 11:24 28.07053 117.64317 36086 ft 435 kts 222°
2026-05-07 11:25 28.02294 117.60178 36091 ft 434 kts 223°
2026-05-07 11:25 27.97508 117.56009 36087 ft 434 kts 223°
2026-05-07 11:26 27.92716 117.51845 36089 ft 434 kts 223°
2026-05-07 11:26 27.87926 117.47688 36088 ft 434 kts 223°
2026-05-07 11:27 27.83127 117.43538 36089 ft 434 kts 223°
2026-05-07 11:27 27.78332 117.39395 36085 ft 434 kts 223°
2026-05-07 11:28 27.73540 117.35251 36084 ft 434 kts 223°
2026-05-07 11:28 27.68753 117.31111 36079 ft 434 kts 223°
2026-05-07 11:29 27.63957 117.26976 36078 ft 434 kts 223°
2026-05-07 11:29 27.59193 117.22870 36078 ft 434 kts 223°
2026-05-07 11:30 27.54397 117.18739 36071 ft 434 kts 223°
2026-05-07 11:30 27.49597 117.14612 36072 ft 434 kts 223°
2026-05-07 11:31 27.44788 117.10489 36070 ft 434 kts 223°
2026-05-07 11:31 27.39976 117.06363 36069 ft 435 kts 223°
2026-05-07 11:32 27.32764 117.00180 36060 ft 435 kts 223°
2026-05-07 11:33 27.27951 116.96062 36081 ft 435 kts 223°
2026-05-07 11:33 27.23128 116.91939 36072 ft 435 kts 223°
2026-05-07 11:34 27.18310 116.87828 36067 ft 435 kts 223°
2026-05-07 11:34 27.13491 116.83716 36071 ft 435 kts 223°
2026-05-07 11:35 27.08670 116.79606 36068 ft 435 kts 223°
2026-05-07 11:35 27.03846 116.75507 36063 ft 435 kts 223°
2026-05-07 11:36 26.99023 116.71410 36071 ft 435 kts 222°
2026-05-07 11:36 26.94223 116.67341 36072 ft 435 kts 222°
2026-05-07 11:37 26.89393 116.63246 36064 ft 435 kts 223°
2026-05-07 11:37 26.84569 116.59159 36072 ft 435 kts 223°
2026-05-07 11:38 26.79741 116.55078 36064 ft 435 kts 222°
2026-05-07 11:38 26.74906 116.50998 36065 ft 435 kts 222°
2026-05-07 11:39 26.70070 116.46919 36067 ft 435 kts 222°
2026-05-07 11:39 26.65245 116.42843 36062 ft 435 kts 222°
2026-05-07 11:40 26.60411 116.38773 36062 ft 435 kts 222°
2026-05-07 11:40 26.55574 116.34707 36058 ft 435 kts 222°
2026-05-07 11:41 26.50741 116.30635 36056 ft 435 kts 222°
2026-05-07 11:41 26.45898 116.26567 36059 ft 435 kts 222°
2026-05-07 11:42 26.41061 116.22506 36060 ft 435 kts 222°
2026-05-07 11:42 26.36211 116.18451 36054 ft 436 kts 222°
2026-05-07 11:43 26.31381 116.14432 36054 ft 436 kts 222°
2026-05-07 11:43 26.26526 116.10384 36052 ft 436 kts 222°
2026-05-07 11:44 26.21670 116.06327 36050 ft 437 kts 222°
2026-05-07 11:44 26.16802 116.02270 36052 ft 437 kts 221°
2026-05-07 11:45 26.11933 115.98224 36052 ft 437 kts 222°
2026-05-07 11:45 26.07066 115.94167 36050 ft 437 kts 222°
2026-05-07 11:46 26.02194 115.90105 36052 ft 438 kts 222°
2026-05-07 11:46 25.97309 115.86047 36052 ft 439 kts 221°
2026-05-07 11:47 25.92411 115.81993 36047 ft 439 kts 221°
2026-05-07 11:47 25.87514 115.77938 36053 ft 439 kts 221°
2026-05-07 11:48 25.82645 115.73905 36055 ft 440 kts 222°
2026-05-07 11:48 25.77740 115.69852 36045 ft 439 kts 221°
2026-05-07 11:49 25.72842 115.65801 36045 ft 440 kts 222°
2026-05-07 11:49 25.67936 115.61748 36036 ft 440 kts 222°
2026-05-07 11:50 25.63030 115.57708 36048 ft 439 kts 222°
2026-05-07 11:50 25.58133 115.53677 36056 ft 438 kts 222°
2026-05-07 11:51 25.53241 115.49650 36057 ft 438 kts 222°
2026-05-07 11:51 25.48357 115.45634 36058 ft 437 kts 222°
2026-05-07 11:52 25.43470 115.41624 36056 ft 437 kts 222°
2026-05-07 11:52 25.38582 115.37621 36057 ft 437 kts 222°
2026-05-07 11:53 25.33703 115.33618 36051 ft 437 kts 222°
2026-05-07 11:53 25.28822 115.29618 36045 ft 437 kts 222°
2026-05-07 11:54 25.23937 115.25629 36045 ft 437 kts 222°
2026-05-07 11:54 25.19049 115.21638 36043 ft 437 kts 222°
2026-05-07 11:55 25.14161 115.17656 36036 ft 437 kts 222°
2026-05-07 11:55 25.09266 115.13667 36034 ft 437 kts 222°
2026-05-07 11:56 25.04379 115.09671 36024 ft 437 kts 222°
2026-05-07 11:56 24.99492 115.05682 36031 ft 438 kts 222°
2026-05-07 11:57 24.94581 115.01687 36027 ft 438 kts 222°
2026-05-07 11:57 24.89699 114.97728 36027 ft 439 kts 222°
2026-05-07 11:58 24.84779 114.93738 36027 ft 440 kts 221°
2026-05-07 11:58 24.79848 114.89751 36030 ft 440 kts 221°
2026-05-07 11:59 24.74899 114.85773 36034 ft 440 kts 221°
2026-05-07 11:59 24.69961 114.81786 36036 ft 441 kts 221°
2026-05-07 12:00 24.65032 114.77790 36036 ft 440 kts 221°
2026-05-07 12:00 24.60096 114.73806 36035 ft 440 kts 221°
2026-05-07 12:01 24.55151 114.69828 36039 ft 440 kts 221°
2026-05-07 12:01 24.50215 114.65848 36037 ft 441 kts 221°
2026-05-07 12:02 24.45260 114.61861 36032 ft 441 kts 221°
2026-05-07 12:02 24.40349 114.57910 36021 ft 441 kts 221°
2026-05-07 12:03 24.35389 114.53931 36023 ft 442 kts 221°
2026-05-07 12:03 24.30442 114.49933 36018 ft 441 kts 223°
2026-05-07 12:04 24.25749 114.45632 36017 ft 439 kts 226°
2026-05-07 12:04 24.21185 114.41127 36009 ft 439 kts 226°
2026-05-07 12:05 24.17395 114.37427 36014 ft 440 kts 226°
2026-05-07 12:05 24.12012 114.32322 36020 ft 441 kts 225°
2026-05-07 12:06 24.07361 114.27959 36013 ft 441 kts 225°
2026-05-07 12:06 24.03464 114.24293 36008 ft 441 kts 225°
2026-05-07 12:07 23.98062 114.19198 36008 ft 441 kts 225°
2026-05-07 12:07 23.94164 114.15521 36011 ft 442 kts 225°
2026-05-07 12:08 23.89511 114.11130 36012 ft 442 kts 225°
2026-05-07 12:08 23.84849 114.06749 36015 ft 442 kts 225°
2026-05-07 12:09 23.80220 114.02402 36017 ft 442 kts 225°
2026-05-07 12:09 23.75528 113.97990 36013 ft 442 kts 225°
2026-05-07 12:10 23.70898 113.93645 36007 ft 442 kts 225°
2026-05-07 12:10 23.66207 113.89243 36005 ft 443 kts 225°
2026-05-07 12:11 23.61534 113.84860 36001 ft 443 kts 224°
2026-05-07 12:11 23.56879 113.80508 36001 ft 444 kts 224°
2026-05-07 12:12 23.52182 113.76124 35991 ft 445 kts 224°
2026-05-07 12:12 23.47480 113.71734 35992 ft 446 kts 224°
2026-05-07 12:13 23.42764 113.67339 35987 ft 447 kts 224°
2026-05-07 12:13 23.38042 113.62942 35990 ft 447 kts 224°
2026-05-07 12:14 23.33307 113.58530 35994 ft 448 kts 224°
2026-05-07 12:14 23.28570 113.54121 35997 ft 449 kts 224°
2026-05-07 12:15 23.23821 113.49710 36006 ft 449 kts 224°
2026-05-07 12:15 23.19065 113.45298 36001 ft 450 kts 224°
2026-05-07 12:16 23.14301 113.40895 36001 ft 450 kts 223°
2026-05-07 12:16 23.09387 113.36662 36004 ft 452 kts 220°
2026-05-07 12:17 23.04367 113.32545 36006 ft 452 kts 220°
2026-05-07 12:17 22.99361 113.28405 36008 ft 452 kts 221°
2026-05-07 12:18 22.94397 113.24221 36005 ft 452 kts 221°
2026-05-07 12:18 22.89429 113.20027 36008 ft 453 kts 221°
2026-05-07 12:19 22.84453 113.15844 36009 ft 453 kts 221°
2026-05-07 12:19 22.79466 113.11669 36011 ft 453 kts 221°
2026-05-07 12:20 22.74469 113.07490 36010 ft 454 kts 221°
2026-05-07 12:20 22.69505 113.03344 36014 ft 454 kts 221°
2026-05-07 12:21 22.64507 112.99160 36015 ft 454 kts 221°
2026-05-07 12:21 22.59507 112.94977 36016 ft 454 kts 221°
2026-05-07 12:22 22.54497 112.90800 36021 ft 455 kts 221°
2026-05-07 12:22 22.49482 112.86622 36024 ft 455 kts 220°
2026-05-07 12:23 22.44469 112.82451 36025 ft 455 kts 220°
2026-05-07 12:23 22.39449 112.78272 36024 ft 455 kts 220°
2026-05-07 12:24 22.34429 112.74104 36024 ft 455 kts 220°
2026-05-07 12:24 22.29402 112.69934 36021 ft 456 kts 220°
2026-05-07 12:25 22.24408 112.65791 36022 ft 456 kts 220°
2026-05-07 12:25 22.19382 112.61623 36022 ft 456 kts 220°
2026-05-07 12:26 22.14350 112.57455 36026 ft 456 kts 220°
2026-05-07 12:26 22.09318 112.53289 36028 ft 456 kts 220°
2026-05-07 12:27 22.04273 112.49125 36028 ft 457 kts 220°
2026-05-07 12:27 21.99225 112.44957 36030 ft 457 kts 220°
2026-05-07 12:28 21.94184 112.40793 36034 ft 457 kts 220°
2026-05-07 12:28 21.89142 112.36628 36030 ft 457 kts 220°
2026-05-07 12:29 21.84091 112.32470 36036 ft 457 kts 220°
2026-05-07 12:29 21.79064 112.28341 36039 ft 458 kts 220°
2026-05-07 12:30 21.74006 112.24186 36035 ft 457 kts 221°
2026-05-07 12:30 21.69501 112.19431 36034 ft 453 kts 230°
2026-05-07 12:31 21.65199 112.14472 36028 ft 453 kts 230°
2026-05-07 12:31 21.60885 112.09526 36030 ft 453 kts 229°
2026-05-07 12:32 21.56565 112.04595 36028 ft 453 kts 229°
2026-05-07 12:32 21.52242 111.99662 36035 ft 453 kts 229°
2026-05-07 12:33 21.45757 111.92275 36024 ft 453 kts 229°
2026-05-07 12:33 21.41435 111.87345 36026 ft 453 kts 229°
2026-05-07 12:34 21.37118 111.82423 36024 ft 454 kts 229°
2026-05-07 12:34 21.32794 111.77487 36026 ft 454 kts 229°
2026-05-07 12:35 21.28495 111.72580 36024 ft 454 kts 229°
2026-05-07 12:35 21.24160 111.67648 36025 ft 455 kts 229°
2026-05-07 12:36 21.19819 111.62717 36025 ft 455 kts 229°
2026-05-07 12:36 21.15476 111.57795 36027 ft 455 kts 229°
2026-05-07 12:37 21.11126 111.52866 36027 ft 455 kts 229°
2026-05-07 12:37 21.06776 111.47938 36028 ft 455 kts 229°
2026-05-07 12:38 21.02419 111.43008 36031 ft 455 kts 229°
2026-05-07 12:38 20.98068 111.38084 36031 ft 456 kts 229°
2026-05-07 12:39 20.93708 111.33156 36029 ft 456 kts 229°
2026-05-07 12:39 20.89352 111.28235 36029 ft 456 kts 229°
2026-05-07 12:40 20.84988 111.23319 36031 ft 456 kts 229°
2026-05-07 12:40 20.80623 111.18404 36030 ft 456 kts 229°
2026-05-07 12:41 20.76259 111.13490 36030 ft 456 kts 229°
2026-05-07 12:41 20.71891 111.08575 36026 ft 456 kts 229°
2026-05-07 12:42 20.67526 111.03665 36028 ft 456 kts 229°
2026-05-07 12:42 20.63156 110.98759 36029 ft 456 kts 229°
2026-05-07 12:43 20.58786 110.93855 36026 ft 456 kts 229°
2026-05-07 12:43 20.54413 110.88960 36023 ft 456 kts 227°
2026-05-07 12:44 20.49178 110.85088 36016 ft 464 kts 206°
2026-05-07 12:44 20.46114 110.83968 36017 ft 468 kts 195°
2026-05-07 12:44 20.42878 110.83452 36010 ft 472 kts 187°
2026-05-07 12:45 20.36327 110.82937 36006 ft 472 kts 187°
2026-05-07 12:45 20.29766 110.82413 36007 ft 473 kts 187°
2026-05-07 12:46 20.23204 110.81884 36011 ft 473 kts 187°
2026-05-07 12:46 20.17751 110.81439 36008 ft 473 kts 187°
2026-05-07 12:47 20.11181 110.80918 36007 ft 473 kts 187°
2026-05-07 12:47 20.04621 110.80400 36010 ft 473 kts 187°
2026-05-07 12:48 19.98050 110.79874 36010 ft 473 kts 187°
2026-05-07 12:48 19.91490 110.79355 36008 ft 473 kts 187°
2026-05-07 12:49 19.85151 110.77799 36008 ft 465 kts 206°
2026-05-07 12:49 19.79714 110.74237 36005 ft 458 kts 221°
2026-05-07 12:50 19.74725 110.70024 36001 ft 458 kts 221°
2026-05-07 12:50 19.69722 110.65820 36000 ft 459 kts 221°
2026-05-07 12:51 19.64722 110.61613 36002 ft 459 kts 221°
2026-05-07 12:51 19.59720 110.57398 36000 ft 459 kts 221°
2026-05-07 12:52 19.54749 110.53222 36018 ft 459 kts 221°
2026-05-07 12:52 19.49739 110.49015 36026 ft 459 kts 221°
2026-05-07 12:53 19.44734 110.44811 36022 ft 459 kts 221°
2026-05-07 12:53 19.39724 110.40603 36025 ft 459 kts 221°
2026-05-07 12:54 19.34711 110.36403 36025 ft 460 kts 221°
2026-05-07 12:54 19.29694 110.32207 36021 ft 460 kts 221°
2026-05-07 12:55 19.24675 110.28003 36017 ft 460 kts 221°
2026-05-07 12:55 19.19662 110.23805 36018 ft 460 kts 221°
2026-05-07 12:56 19.14639 110.19605 36019 ft 460 kts 221°
2026-05-07 12:56 19.10458 110.16122 36026 ft 461 kts 221°
2026-05-07 12:57 19.04573 110.11220 36021 ft 461 kts 220°
2026-05-07 12:57 19.00388 110.07731 36021 ft 461 kts 220°
2026-05-07 12:58 18.95350 110.03536 36021 ft 461 kts 220°
2026-05-07 12:58 18.90310 109.99343 36023 ft 461 kts 220°
2026-05-07 12:59 18.85269 109.95150 36029 ft 461 kts 220°
2026-05-07 12:59 18.80230 109.90956 36033 ft 462 kts 220°
2026-05-07 13:00 18.75177 109.86763 36028 ft 462 kts 220°
2026-05-07 13:00 18.70125 109.82576 36028 ft 462 kts 220°
2026-05-07 13:01 18.65071 109.78389 36029 ft 462 kts 220°
2026-05-07 13:01 18.60012 109.74202 36023 ft 462 kts 220°
2026-05-07 13:02 18.54950 109.70013 36023 ft 463 kts 220°
2026-05-07 13:02 18.49949 109.65875 36011 ft 463 kts 220°
2026-05-07 13:03 18.44884 109.61685 35999 ft 463 kts 220°
2026-05-07 13:03 18.39812 109.57495 35991 ft 463 kts 220°
2026-05-07 13:04 18.34737 109.53313 35984 ft 463 kts 220°
2026-05-07 13:04 18.29658 109.49136 35972 ft 463 kts 220°
2026-05-07 13:05 18.24572 109.45033 35975 ft 464 kts 219°
2026-05-07 13:05 18.19399 109.40919 35987 ft 464 kts 219°
2026-05-07 13:06 18.14283 109.36841 35989 ft 464 kts 219°
2026-05-07 13:06 18.09148 109.32721 35997 ft 464 kts 219°
2026-05-07 13:07 18.04014 109.28606 36005 ft 464 kts 219°
2026-05-07 13:07 17.98844 109.24468 36010 ft 464 kts 219°
2026-05-07 13:08 17.93700 109.20357 36011 ft 465 kts 219°
2026-05-07 13:08 17.88547 109.16248 36011 ft 465 kts 219°
2026-05-07 13:09 17.83398 109.12140 36011 ft 465 kts 219°
2026-05-07 13:09 17.78284 109.08063 36009 ft 465 kts 219°
2026-05-07 13:10 17.73129 109.03960 36013 ft 465 kts 219°
2026-05-07 13:10 17.67972 108.99851 36010 ft 465 kts 219°
2026-05-07 13:11 17.62820 108.95747 36010 ft 465 kts 219°
2026-05-07 13:11 17.57660 108.91646 36010 ft 465 kts 219°
2026-05-07 13:12 17.52499 108.87544 36006 ft 466 kts 219°
2026-05-07 13:12 17.49922 108.85496 36185 ft 465 kts 219°
2026-05-07 13:12 17.47346 108.83453 36608 ft 463 kts 219°
2026-05-07 13:13 17.44780 108.81423 36974 ft 462 kts 219°
2026-05-07 13:13 17.42215 108.79399 37318 ft 461 kts 219°
2026-05-07 13:13 17.39656 108.77376 37650 ft 461 kts 219°
2026-05-07 13:13 17.37096 108.75347 37865 ft 461 kts 220°
2026-05-07 13:14 17.31992 108.71291 37888 ft 461 kts 220°
2026-05-07 13:14 17.26887 108.67242 37886 ft 460 kts 220°
2026-05-07 13:15 17.21779 108.63203 37887 ft 460 kts 220°
2026-05-07 13:15 17.16674 108.59157 37888 ft 460 kts 220°
2026-05-07 13:16 17.11572 108.55116 37890 ft 461 kts 220°
2026-05-07 13:16 17.06458 108.51082 37894 ft 461 kts 220°
2026-05-07 13:17 17.01335 108.47040 37897 ft 461 kts 219°
2026-05-07 13:17 16.96215 108.43002 37900 ft 461 kts 220°
2026-05-07 13:18 16.91091 108.38963 37899 ft 461 kts 219°
2026-05-07 13:18 16.85965 108.34934 37904 ft 461 kts 219°
2026-05-07 13:19 16.80843 108.30904 37903 ft 461 kts 219°
2026-05-07 13:19 16.75717 108.26876 37904 ft 461 kts 219°
2026-05-07 13:20 16.70594 108.22852 37901 ft 461 kts 219°
2026-05-07 13:20 16.65476 108.18839 37903 ft 461 kts 219°
2026-05-07 13:21 16.60348 108.14825 37906 ft 460 kts 219°
2026-05-07 13:21 16.55813 108.10186 37902 ft 456 kts 230°
2026-05-07 13:22 16.51594 108.05249 37898 ft 456 kts 230°
2026-05-07 13:22 16.47363 108.00312 37896 ft 456 kts 230°
2026-05-07 13:23 16.43128 107.95389 37889 ft 456 kts 230°
2026-05-07 13:23 16.38893 107.90463 37884 ft 456 kts 230°
2026-05-07 13:24 16.34666 107.85535 37885 ft 456 kts 230°
2026-05-07 13:24 16.30435 107.80607 37892 ft 456 kts 230°
2026-05-07 13:25 16.26202 107.75690 37892 ft 456 kts 230°
2026-05-07 13:25 16.21957 107.70768 37889 ft 456 kts 230°
2026-05-07 13:26 16.17724 107.65850 37896 ft 456 kts 230°
2026-05-07 13:26 16.13484 107.60922 37908 ft 457 kts 230°
2026-05-07 13:27 16.09242 107.56001 37922 ft 457 kts 230°
2026-05-07 13:27 16.04993 107.51084 37935 ft 457 kts 230°
2026-05-07 13:28 16.00753 107.46164 37940 ft 457 kts 230°
2026-05-07 13:28 15.96507 107.41235 37950 ft 457 kts 230°
2026-05-07 13:29 15.92253 107.36312 37954 ft 458 kts 230°
2026-05-07 13:29 15.87999 107.31395 37957 ft 458 kts 230°
2026-05-07 13:30 15.83739 107.26476 37963 ft 458 kts 230°
2026-05-07 13:30 15.79470 107.21561 37960 ft 458 kts 230°
2026-05-07 13:31 15.75014 107.16830 37965 ft 460 kts 223°
2026-05-07 13:31 15.70186 107.12478 37960 ft 460 kts 223°
2026-05-07 13:32 15.65356 107.08121 37955 ft 460 kts 223°
2026-05-07 13:32 15.60522 107.03776 37947 ft 460 kts 223°
2026-05-07 13:33 15.55690 106.99431 37935 ft 460 kts 223°
2026-05-07 13:33 15.50858 106.95084 37927 ft 459 kts 223°
2026-05-07 13:34 15.43622 106.88562 37919 ft 459 kts 223°
2026-05-07 13:35 15.38795 106.84228 37912 ft 459 kts 223°
2026-05-07 13:35 15.33973 106.79892 37913 ft 459 kts 223°
2026-05-07 13:36 15.29145 106.75551 37902 ft 460 kts 223°
2026-05-07 13:36 15.24311 106.71214 37904 ft 460 kts 223°
2026-05-07 13:37 15.19471 106.66877 37902 ft 460 kts 223°
2026-05-07 13:37 15.14655 106.62564 37906 ft 461 kts 223°
2026-05-07 13:38 15.09802 106.58217 37905 ft 462 kts 223°
2026-05-07 13:38 15.04941 106.53862 37906 ft 462 kts 223°
2026-05-07 13:39 15.00073 106.49509 37905 ft 463 kts 223°
2026-05-07 13:39 14.95204 106.45154 37899 ft 463 kts 223°
2026-05-07 13:40 14.90327 106.40789 37904 ft 463 kts 223°
2026-05-07 13:40 14.86245 106.37141 37895 ft 463 kts 223°
2026-05-07 13:41 14.80571 106.32092 37887 ft 463 kts 223°
2026-05-07 13:41 14.76513 106.28485 37880 ft 463 kts 223°
2026-05-07 13:42 14.71638 106.24144 37882 ft 462 kts 223°
2026-05-07 13:42 14.66767 106.19809 37873 ft 462 kts 223°
2026-05-07 13:43 14.61887 106.15485 37875 ft 462 kts 223°
2026-05-07 13:43 14.57009 106.11163 37865 ft 462 kts 223°
2026-05-07 13:44 14.52131 106.06836 37867 ft 462 kts 223°
2026-05-07 13:44 14.47260 106.02515 37869 ft 462 kts 222°
2026-05-07 13:45 14.42378 105.98197 37868 ft 462 kts 222°
2026-05-07 13:45 14.37501 105.93878 37859 ft 462 kts 222°
2026-05-07 13:46 14.32624 105.89562 37869 ft 462 kts 222°
2026-05-07 13:46 14.27741 105.85244 37859 ft 462 kts 222°
2026-05-07 13:47 14.22854 105.80937 37862 ft 462 kts 222°
2026-05-07 13:47 14.17964 105.76628 37861 ft 462 kts 222°
2026-05-07 13:48 14.13077 105.72311 37858 ft 462 kts 222°
2026-05-07 13:48 14.08193 105.68002 37865 ft 463 kts 222°
2026-05-07 13:49 14.03280 105.63717 37857 ft 463 kts 221°
2026-05-07 13:49 13.98361 105.59440 37859 ft 463 kts 222°
2026-05-07 13:50 13.93442 105.55155 37850 ft 463 kts 222°
2026-05-07 13:50 13.90981 105.53009 37610 ft 463 kts 222°
2026-05-07 13:50 13.88525 105.50868 37359 ft 463 kts 221°
2026-05-07 13:50 13.86066 105.48727 37087 ft 463 kts 221°
2026-05-07 13:51 13.83608 105.46587 36837 ft 464 kts 221°
2026-05-07 13:51 13.81035 105.44580 36593 ft 465 kts 213°
2026-05-07 13:51 13.78175 105.43010 36345 ft 467 kts 204°
2026-05-07 13:51 13.75089 105.41940 36099 ft 469 kts 195°
2026-05-07 13:52 13.71923 105.41113 35862 ft 470 kts 195°
2026-05-07 13:52 13.68747 105.40281 35624 ft 471 kts 195°
2026-05-07 13:52 13.65570 105.39448 35391 ft 471 kts 195°
2026-05-07 13:52 13.62392 105.38616 35156 ft 472 kts 195°
2026-05-07 13:53 13.59209 105.37790 34922 ft 472 kts 195°
2026-05-07 13:53 13.56017 105.36965 34696 ft 473 kts 195°
2026-05-07 13:53 13.52828 105.36135 34469 ft 473 kts 195°
2026-05-07 13:53 13.49636 105.35297 34246 ft 473 kts 195°
2026-05-07 13:54 13.46447 105.34458 34022 ft 474 kts 195°
2026-05-07 13:54 13.43247 105.33615 33796 ft 474 kts 195°
2026-05-07 13:54 13.40052 105.32773 33540 ft 475 kts 195°
2026-05-07 13:54 13.36890 105.31941 33293 ft 475 kts 195°
2026-05-07 13:55 13.33688 105.31102 33037 ft 475 kts 194°
2026-05-07 13:55 13.30441 105.30254 32779 ft 476 kts 194°
2026-05-07 13:55 13.27225 105.29416 31970 ft 479 kts 194°
2026-05-07 13:55 13.23963 105.28566 30904 ft 487 kts 194°
2026-05-07 13:56 13.20664 105.27704 29793 ft 493 kts 194°
2026-05-07 13:56 13.17314 105.26826 28654 ft 497 kts 194°
2026-05-07 13:56 13.13984 105.25954 27883 ft 492 kts 194°
2026-05-07 13:56 13.10680 105.25086 27126 ft 487 kts 193°
2026-05-07 13:57 13.07414 105.24227 26368 ft 483 kts 193°
2026-05-07 13:57 13.04179 105.23376 25617 ft 478 kts 193°
2026-05-07 13:57 13.00967 105.22534 24875 ft 473 kts 193°
2026-05-07 13:57 12.97795 105.21702 24142 ft 469 kts 193°
2026-05-07 13:58 12.94637 105.20876 23413 ft 466 kts 193°
2026-05-07 13:58 12.91510 105.20056 22607 ft 462 kts 193°
2026-05-07 13:58 12.88422 105.19247 21911 ft 455 kts 192°
2026-05-07 13:58 12.85379 105.18449 21231 ft 448 kts 192°
2026-05-07 13:59 12.82378 105.17665 20574 ft 441 kts 192°
2026-05-07 13:59 12.79429 105.16896 19949 ft 435 kts 192°
2026-05-07 13:59 12.76520 105.16137 19344 ft 429 kts 192°
2026-05-07 13:59 12.73645 105.15387 18748 ft 423 kts 192°
2026-05-07 14:00 12.70811 105.14650 18160 ft 419 kts 192°
2026-05-07 14:00 12.68000 105.13917 17496 ft 415 kts 192°
2026-05-07 14:00 12.65217 105.13192 16904 ft 410 kts 192°
2026-05-07 14:00 12.62469 105.12477 16289 ft 406 kts 192°
2026-05-07 14:01 12.59747 105.11769 15669 ft 402 kts 192°
2026-05-07 14:01 12.57046 105.11064 15038 ft 399 kts 192°
2026-05-07 14:01 12.54370 105.10365 14407 ft 396 kts 192°
2026-05-07 14:01 12.51705 105.09671 13773 ft 394 kts 192°
2026-05-07 14:02 12.49059 105.08984 13074 ft 391 kts 192°
2026-05-07 14:02 12.46431 105.08302 12425 ft 387 kts 192°
2026-05-07 14:02 12.43835 105.07627 11796 ft 383 kts 192°
2026-05-07 14:02 12.41263 105.06959 11164 ft 380 kts 192°
2026-05-07 14:03 12.38721 105.06298 10703 ft 372 kts 192°
2026-05-07 14:03 12.36299 105.05666 10585 ft 355 kts 192°
2026-05-07 14:03 12.33957 105.05052 10472 ft 341 kts 192°
2026-05-07 14:03 12.31706 105.04463 10347 ft 328 kts 192°
2026-05-07 14:04 12.29534 105.03897 10236 ft 317 kts 192°
2026-05-07 14:04 12.27435 105.03351 10122 ft 306 kts 192°
2026-05-07 14:04 12.25401 105.02822 9987 ft 297 kts 192°
2026-05-07 14:04 12.23413 105.02308 9811 ft 292 kts 192°
2026-05-07 14:05 12.21446 105.01799 9585 ft 291 kts 192°
2026-05-07 14:05 12.19482 105.01291 9214 ft 292 kts 192°
2026-05-07 14:05 12.17511 105.00781 8866 ft 291 kts 192°
2026-05-07 14:05 12.15555 105.00272 8522 ft 291 kts 192°
2026-05-07 14:06 12.13605 104.99763 8276 ft 287 kts 192°
2026-05-07 14:06 12.11674 104.99259 7953 ft 286 kts 192°
2026-05-07 14:06 12.09747 104.98758 7644 ft 285 kts 192°
2026-05-07 14:06 12.07829 104.98260 7351 ft 283 kts 192°
2026-05-07 14:07 12.05935 104.97769 6902 ft 280 kts 192°
2026-05-07 14:07 12.04056 104.97280 6367 ft 277 kts 192°
2026-05-07 14:07 12.02168 104.97033 5905 ft 271 kts 178°
2026-05-07 14:07 12.00294 104.97058 5650 ft 268 kts 178°
2026-05-07 14:08 11.98438 104.97073 5396 ft 266 kts 179°
2026-05-07 14:08 11.96590 104.97083 5149 ft 265 kts 179°
2026-05-07 14:08 11.94752 104.97091 4913 ft 263 kts 179°
2026-05-07 14:08 11.92925 104.97101 4667 ft 262 kts 179°
2026-05-07 14:09 11.91104 104.97111 4415 ft 261 kts 179°
2026-05-07 14:09 11.89292 104.97122 4177 ft 260 kts 179°
2026-05-07 14:09 11.87490 104.97134 3957 ft 258 kts 179°
2026-05-07 14:09 11.85697 104.97146 3812 ft 258 kts 179°
2026-05-07 14:10 11.83897 104.97158 3683 ft 258 kts 179°
2026-05-07 14:10 11.82106 104.97171 3542 ft 257 kts 179°
2026-05-07 14:10 11.80319 104.97185 3399 ft 256 kts 179°
2026-05-07 14:10 11.78539 104.97199 3251 ft 255 kts 179°
2026-05-07 14:11 11.76786 104.97213 3134 ft 247 kts 179°
2026-05-07 14:11 11.75104 104.97227 3028 ft 237 kts 179°
2026-05-07 14:11 11.73514 104.97239 2930 ft 226 kts 179°
2026-05-07 14:11 11.71957 104.97250 2826 ft 216 kts 179°
2026-05-07 14:12 11.70509 104.97261 2736 ft 206 kts 179°
2026-05-07 14:12 11.69109 104.97273 2651 ft 197 kts 178°
2026-05-07 14:12 11.67761 104.97215 2568 ft 192 kts 190°
2026-05-07 14:12 11.66533 104.96697 2511 ft 192 kts 214°
2026-05-07 14:13 11.65580 104.95796 2527 ft 178 kts 225°
2026-05-07 14:13 11.64752 104.94933 2452 ft 164 kts 224°
2026-05-07 14:13 11.63992 104.94140 2311 ft 150 kts 223°
2026-05-07 14:13 11.63286 104.93404 2124 ft 143 kts 223°
2026-05-07 14:14 11.62601 104.92691 1954 ft 139 kts 223°
2026-05-07 14:14 11.61921 104.91984 1777 ft 140 kts 222°
2026-05-07 14:14 11.61251 104.91286 1607 ft 137 kts 222°
2026-05-07 14:14 11.60584 104.90591 1429 ft 137 kts 222°
2026-05-07 14:15 11.59920 104.89899 1254 ft 136 kts 223°
2026-05-07 14:15 11.59260 104.89211 1074 ft 135 kts 224°
2026-05-07 14:15 11.58610 104.88534 917 ft 132 kts 224°
2026-05-07 14:15 11.57963 104.87859 731 ft 135 kts 225°
2026-05-07 14:16 11.57308 104.87178 583 ft 134 kts 225°
2026-05-07 14:16 11.56655 104.86497 410 ft 134 kts 225°
2026-05-07 14:16 11.56006 104.85821 245 ft 132 kts 225°
2026-05-07 14:16 11.55361 104.85152 86 ft 130 kts 225°
2026-05-07 14:17 11.54805 104.84574 59 ft 94 kts 226°
2026-05-07 14:17 11.54469 104.84224 57 ft 44 kts 226°
2026-05-07 14:17 11.54271 104.84018 63 ft 37 kts 226°
2026-05-07 14:17 11.54138 104.83877 64 ft 17 kts 230°
2026-05-07 14:18 11.54151 104.83797 60 ft 13 kts 315°
2026-05-07 14:18 11.54214 104.83743 60 ft 9 kts 341°
2026-05-07 14:18 11.54280 104.83772 57 ft 12 kts 45°
2026-05-07 14:18 11.54345 104.83841 61 ft 15 kts 46°
2026-05-07 14:19 11.54426 104.83925 59 ft 18 kts 45°
2026-05-07 14:19 11.54517 104.84019 63 ft 20 kts 46°
2026-05-07 14:19 11.54616 104.84122 56 ft 21 kts 46°
2026-05-07 14:19 11.54723 104.84234 58 ft 23 kts 45°
2026-05-07 14:20 11.54835 104.84350 57 ft 22 kts 45°
2026-05-07 14:20 11.54939 104.84458 56 ft 21 kts 46°
2026-05-07 14:20 11.55025 104.84548 60 ft 15 kts 46°
2026-05-07 14:20 11.55089 104.84588 63 ft 10 kts
2026-05-07 14:21 11.55154 104.84611 54 ft 9 kts 41°
2026-05-07 14:21 11.55194 104.84646 61 ft 6 kts 17°
2026-05-07 14:21 11.55227 104.84622 59 ft 7 kts 299°
2026-05-07 14:21 11.55241 104.84589 61 ft 3 kts 292°
2026-05-07 14:22 11.55243 104.84584 62 ft 0 kts 292°